KC3MN Weather Reports


time (UTC)temp
F
wind
direction
speed
knots
gust
knots
rain 1hr
in
rain 24hr
in
rain mn
in
humidity
%
barometer
mb
20260506044556 55 0 0.0 0.0 0.00 0.01 0.00 83 1008.1
20260506043046 56 0 0.0 0.0 0.00 0.01 0.00 83 1008.2
20260506041551 56 0 0.0 0.0 0.00 0.01 0.00 82 1008.3
20260506040058 57 0 0.0 0.0 0.00 0.01 0.00 81 1008.3
20260506034549 57 0 0.0 0.0 0.00 0.01 0.01 81 1008.5
20260506033046 58 0 0.0 0.0 0.00 0.01 0.01 80 1008.3
20260506031556 58 0 0.0 0.0 0.00 0.01 0.01 79 1008.3
20260506030110 59 0 0.0 0.0 0.00 0.01 0.01 78 1008.1
20260506024544 60 0 0.0 0.0 0.00 0.01 0.01 77 1008.2
20260506023047 61 0 0.0 0.0 0.00 0.01 0.01 76 1008.1
20260506021548 62 0 0.0 0.0 0.00 0.01 0.01 75 1008.2
20260506020052 63 0 0.0 0.0 0.00 0.01 0.01 72 1008.2
20260506014559 63 0 0.0 0.0 0.00 0.01 0.01 68 1008.1
20260506013053 64 0 0.0 0.0 0.00 0.01 0.01 67 1008.0
20260506011557 65 0 0.0 0.0 0.00 0.01 0.01 66 1007.7
20260506010054 66 0 0.0 0.0 0.00 0.01 0.01 63 1007.5
20260506004623 68 284 0.0 0.9 0.00 0.01 0.01 62 1007.3
20260506003056 69 0 0.0 0.0 0.00 0.01 0.01 59 1007.1
20260506001556 70 0 0.0 0.0 0.00 0.01 0.01 56 1007.0
20260506000054 72 0 0.0 0.0 0.00 0.01 0.01 52 1007.0
20260505234610 73 0 0.0 0.0 0.00 0.01 0.01 48 1006.8
20260505233050 75 0 0.0 0.0 0.00 0.01 0.01 43 1006.7
20260505231551 76 0 0.0 1.7 0.00 0.01 0.01 41 1006.5
20260505230054 76 0 0.0 6.1 0.00 0.01 0.01 39 1006.5
20260505224551 76 251 0.9 6.1 0.00 0.01 0.01 39 1006.5
20260505223058 76 213 0.0 2.6 0.00 0.01 0.01 40 1006.2
20260505221606 76 285 0.0 2.6 0.00 0.01 0.01 41 1006.2
20260505220133 76 237 0.0 6.1 0.00 0.01 0.01 41 1006.1
20260505214604 73 67 0.0 6.1 0.00 0.01 0.01 46 1006.2
20260505213046 71 0 0.0 1.7 0.01 0.01 0.01 61 1006.3
20260505211544 72 244 0.0 1.7 0.01 0.01 0.01 57 1006.0
20260505210044 72 263 0.0 4.3 0.01 0.01 0.01 55 1006.0
20260505204550 73 0 0.9 15.6 0.01 0.01 0.01 52 1006.1
20260505203052 79 89 1.7 10.4 0.00 0.00 0.00 33 1006.0
20260505201602 80 230 2.6 13.0 0.00 0.00 0.00 32 1005.7
20260505200059 82 224 4.3 13.0 0.00 0.00 0.00 31 1005.6
20260505194603 81 261 4.3 13.0 0.00 0.00 0.00 33 1005.6
20260505193050 83 223 5.2 11.3 0.00 0.00 0.00 31 1005.7
20260505191553 82 338 4.3 10.4 0.00 0.00 0.00 32 1005.9
20260505190054 82 284 1.7 15.6 0.00 0.00 0.00 31 1006.3
20260505184548 82 266 4.3 12.2 0.00 0.00 0.00 29 1006.7
20260505183052 82 190 2.6 11.3 0.00 0.00 0.00 31 1006.8
20260505181548 81 297 3.5 11.3 0.00 0.00 0.00 32 1007.0
20260505180052 82 25 3.5 8.7 0.00 0.00 0.00 33 1007.1
20260505174550 81 157 2.6 12.2 0.00 0.00 0.00 36 1007.2
20260505173053 80 174 2.6 10.4 0.00 0.00 0.00 36 1007.2
20260505171552 80 247 4.3 14.8 0.00 0.00 0.00 39 1007.2
20260505170052 79 147 5.2 13.9 0.00 0.00 0.00 37 1007.4
20260505164607 80 308 2.6 13.0 0.00 0.00 0.00 40 1007.5
20260505163051 79 5 3.5 14.8 0.00 0.00 0.00 38 1007.8
20260505161551 79 258 2.6 12.2 0.00 0.00 0.00 40 1007.9
20260505153053 78 238 4.3 13.0 0.00 0.00 0.00 41 1008.3
20260505151556 77 266 2.6 12.2 0.00 0.00 0.00 41 1008.2
20260505124558 67 299 0.0 3.5 0.00 0.00 0.00 59 1009.3
20260505123053 66 346 0.0 3.5 0.00 0.00 0.00 63 1009.3
20260505121550 62 15 0.0 1.7 0.00 0.00 0.00 74 1009.4
20260505120051 59 0 0.0 1.7 0.00 0.00 0.00 79 1009.4
20260505114547 54 0 0.0 1.7 0.00 0.00 0.00 89 1009.3
20260505113044 53 0 0.0 0.9 0.00 0.00 0.00 89 1009.4
20260505111553 52 0 0.0 0.9 0.00 0.00 0.00 89 1009.3
20260505101546 0 0.0 0.0 0.00 0.00 0.00 1008.8
20260505100047 0 0.0 0.0 0.00 0.00 0.00 1008.8
20260505094551 0 0.0 0.0 0.00 0.00 0.00 1008.6
20260505093053 0 0.0 0.0 0.00 0.00 0.00 1008.6
20260505091604 0 0.0 0.0 0.00 0.00 0.00 1008.5
20260505090049 0 0.0 0.0 0.00 0.00 0.00 1008.3
20260505084548 0 0.0 0.0 0.00 0.00 0.00 1008.5
20260505083045 0 0.0 1.7 0.00 0.00 0.00 81 1008.5
20260505081544 53 0 0.0 1.7 0.00 0.00 0.00 80 1008.6
20260505080100 53 0 0.0 1.7 0.00 0.00 0.00 76 1008.3
20260505074549 53 0 0.0 0.0 0.00 0.00 0.00 70 1008.5
20260505073055 54 0 0.0 0.0 0.00 0.00 0.00 67 1008.1
20260505071544 56 0 0.0 0.0 0.00 0.00 0.00 64 1008.1
20260505070055 57 0 0.0 0.0 0.00 0.00 0.00 61 1008.2
20260505064551 60 0 0.0 1.7 0.00 0.00 0.00 57 1008.2
20260505063052 60 0 0.0 1.7 0.00 0.00 0.00 56 1008.3
20260505061548 60 246 0.0 1.7 0.00 0.00 0.00 56 1008.3
20260505060054 60 0 0.0 0.9 0.00 0.00 0.00 56 1008.5